Flag for Germany Weather past 2 weeks in Alfeld (Leine), Lower Saxony, Germany

Now
55 °F

Broken clouds.


Feels Like: 54 °F
Forecast: 41 / 57 °F
Wind: 6 mph from West

Location: Braunschweig

Current Time: Oct 23, 2014 at 4:28:58 PM

Latest Report: Oct 23, 2014 at 3:50 PM


Visibility: N/A

Pressure: 30.18 "Hg

Humidity: 72%

Dew point: 46 °F

Location of Alfeld (Leine)Location

Historic Weather in Alfeld (Leine) — Graph

°F

Alfeld (Leine) temperature yesterday

Maximum temperature yesterday: 52 °F (at 3:20 PM)
Minimum temperature yesterday: 46 °F (at 9:20 AM)
Average temperature yesterday: 49 °F

Past Weeks' High & Low Weather Summary

 TemperatureHumidityPressure
High72 °F (Oct 19, 3:50 PM)100% (Oct 8, 5:20 PM)30.18 "Hg (Oct 8, 5:20 PM)
Low45 °F (Oct 23, 8:20 AM)52% (Oct 14, 2:20 PM)29.45 "Hg (Oct 21, 6:20 PM)
Average58 °F89%29.81 "Hg
* Reported Oct 8 3:20 PM — Oct 23 3:20 PM, Alfeld (Leine), Weather by CustomWeather, © 2014

Note: Actual official high and low records may vary slightly from our data, if they occured in-between our weather recording intervals... More about our weather records

Advertising

Alfeld (Leine) weather history for previous 24 hours

 ConditionsComfort  
Time TempWeatherWind HumidityBarometerVisibility
3:20 PM
Oct 23
55 °FPassing clouds.5 mph67%30.18 "HgN/A
2:50 PM55 °FPassing clouds.6 mph67%30.18 "HgN/A
2:20 PM55 °FPartly sunny.7 mph67%30.18 "HgN/A
1:50 PM55 °FPartly sunny.6 mph67%30.18 "HgN/A
1:20 PM54 °FScattered clouds.6 mph72%30.18 "HgN/A
12:50 PM54 °FPassing clouds.8 mph77%30.18 "HgN/A
12:20 PM54 °FPassing clouds.8 mph77%30.18 "HgN/A
11:50 AM54 °FPassing clouds.8 mph77%30.18 "HgN/A
11:20 AM54 °FPassing clouds.7 mph77%30.18 "HgN/A
10:50 AM52 °FPassing clouds.6 mph82%30.18 "HgN/A
10:20 AM50 °FPassing clouds.6 mph88%30.18 "HgN/A
9:50 AM48 °FPassing clouds.3 mph94%30.18 "HgN/A
9:20 AM46 °FBroken clouds.5 mph93%30.15 "HgN/A
8:50 AM46 °FPassing clouds.5 mph93%30.15 "HgN/A
8:20 AM45 °FPartly cloudy.5 mph93%30.15 "HgN/A
7:50 AM46 °FPassing clouds.5 mph93%30.12 "HgN/A
7:20 AM48 °FOvercast.6 mph87%30.12 "HgN/A
6:50 AM48 °FOvercast.6 mph87%30.12 "HgN/A
7:50 PM
Oct 22
52 °FMostly cloudy.12 mph100%29.92 "HgN/A
7:20 PM52 °FLight rain. Low clouds.12 mph100%29.89 "HgN/A
6:50 PM52 °FRain. Cloudy.12 mph100%29.89 "Hg4 mi
6:20 PM52 °FRain. Mostly cloudy.10 mph100%29.86 "Hg2 mi
5:50 PM52 °FCloudy.9 mph100%29.83 "HgN/A
5:20 PM52 °FMostly cloudy.12 mph100%29.83 "HgN/A
4:50 PM52 °FMostly cloudy.10 mph100%29.80 "HgN/A
4:20 PM52 °FLow clouds.9 mph100%29.80 "HgN/A
Weather by CustomWeather, © 2014

See weather overviewHow to use our weather pages